TimeCDT,TemperatureF,Dew PointF,Humidity,Sea Level PressureIn,VisibilityMPH,Wind Direction,Wind SpeedMPH,Gust SpeedMPH,PrecipitationIn,Events,Conditions,WindDirDegrees,DateUTC
12:15 AM,53.6,53.6,100,29.95,0.2,SSE,11.5,-,N/A,,Drizzle,150,2012-10-13 05:15:00
12:35 AM,53.6,53.6,100,29.95,0.2,SE,10.4,-,N/A,,Heavy Drizzle,140,2012-10-13 05:35:00
1:15 AM,57.2,55.4,94,29.94,0.5,South,12.7,-,N/A,,Drizzle,170,2012-10-13 06:15:00
2:15 AM,60.8,59.0,94,29.91,0.8,South,15.0,-,N/A,,Drizzle,180,2012-10-13 07:15:00
2:35 AM,59.0,59.0,100,29.90,0.5,South,16.1,19.6,N/A,Rain,Light Rain,180,2012-10-13 07:35:00
3:35 AM,60.8,59.0,94,29.95,3.0,SW,13.8,-,N/A,,Mostly Cloudy,230,2012-10-13 08:35:00
3:55 AM,59.0,59.0,100,29.95,3.0,WNW,6.9,-,N/A,,Mostly Cloudy,290,2012-10-13 08:55:00
4:15 AM,59.0,59.0,100,29.94,3.0,Calm,Calm,-,N/A,,Overcast,0,2012-10-13 09:15:00
4:35 AM,60.8,59.0,94,29.93,4.0,Calm,Calm,-,N/A,,Overcast,0,2012-10-13 09:35:00
5:35 AM,60.8,59.0,94,29.92,4.0,ENE,4.6,-,N/A,Thunderstorm,Overcast,60,2012-10-13 10:35:00
5:55 AM,60.8,59.0,94,29.94,4.0,Calm,Calm,-,N/A,Thunderstorm,Overcast,0,2012-10-13 10:55:00
6:15 AM,60.8,59.0,94,29.95,3.0,NNE,3.5,-,0.02,Rain-Thunderstorm,Light Thunderstorms and Rain,30,2012-10-13 11:15:00
6:35 AM,59.0,59.0,100,29.94,3.0,Calm,Calm,-,0.02,,Overcast,0,2012-10-13 11:35:00
6:55 AM,59.0,59.0,100,29.90,4.0,East,8.1,-,0.02,,Overcast,90,2012-10-13 11:55:00
7:15 AM,59.0,59.0,100,29.89,5.0,East,4.6,-,N/A,,Mostly Cloudy,90,2012-10-13 12:15:00
7:55 AM,59.0,59.0,100,29.89,4.0,SE,10.4,-,0.01,Rain,Rain,140,2012-10-13 12:55:00
8:15 AM,60.8,59.0,94,29.85,3.0,SE,11.5,-,N/A,Rain,Light Rain,130,2012-10-13 13:15:00
8:35 AM,60.8,60.8,100,29.85,1.8,SSE,13.8,-,0.01,Rain-Thunderstorm,Light Thunderstorms and Rain,160,2012-10-13 13:35:00
9:15 AM,62.6,60.8,94,29.84,2.5,SSE,6.9,-,N/A,,Overcast,150,2012-10-13 14:15:00
9:35 AM,62.6,62.6,100,29.83,3.0,South,9.2,-,N/A,,Mostly Cloudy,170,2012-10-13 14:35:00
9:55 AM,64.4,62.6,94,29.83,4.0,South,13.8,-,N/A,,Mostly Cloudy,190,2012-10-13 14:55:00
10:15 AM,64.4,62.6,94,29.83,5.0,South,12.7,-,N/A,,Overcast,190,2012-10-13 15:15:00
10:55 AM,66.2,62.6,88,29.81,10.0,South,12.7,-,N/A,,Overcast,190,2012-10-13 15:55:00
11:35 AM,68.0,64.4,88,29.80,10.0,South,13.8,19.6,N/A,,Overcast,180,2012-10-13 16:35:00
11:55 AM,69.8,64.4,83,29.79,10.0,South,15.0,-,N/A,,Overcast,190,2012-10-13 16:55:00
12:15 PM,71.6,66.2,83,29.78,10.0,South,18.4,24.2,N/A,,Overcast,180,2012-10-13 17:15:00
12:35 PM,73.4,64.4,73,29.77,10.0,South,19.6,-,N/A,,Overcast,180,2012-10-13 17:35:00
12:55 PM,75.2,64.4,69,29.76,10.0,SSW,19.6,27.6,N/A,,Scattered Clouds,200,2012-10-13 17:55:00
1:15 PM,75.2,64.4,69,29.74,10.0,SSW,16.1,-,N/A,,Scattered Clouds,210,2012-10-13 18:15:00
1:35 PM,77.0,62.6,61,29.73,10.0,SSW,18.4,24.2,N/A,,Scattered Clouds,210,2012-10-13 18:35:00
1:55 PM,80.6,62.6,54,29.70,10.0,South,21.9,26.5,N/A,,Scattered Clouds,190,2012-10-13 18:55:00
2:15 PM,80.6,60.8,51,29.69,10.0,SSW,17.3,29.9,N/A,,Scattered Clouds,200,2012-10-13 19:15:00
2:35 PM,82.4,59.0,45,29.68,10.0,SSW,19.6,26.5,N/A,,Scattered Clouds,200,2012-10-13 19:35:00
2:55 PM,82.4,55.4,39,29.66,10.0,SSW,19.6,25.3,N/A,,Clear,200,2012-10-13 19:55:00
3:15 PM,80.6,51.8,37,29.65,10.0,SSW,18.4,26.5,N/A,,Scattered Clouds,210,2012-10-13 20:15:00
3:35 PM,82.4,50.0,32,29.64,10.0,SSW,24.2,27.6,N/A,,Scattered Clouds,210,2012-10-13 20:35:00
3:55 PM,84.2,48.2,29,29.65,10.0,SW,23.0,27.6,N/A,,Clear,220,2012-10-13 20:55:00
4:15 PM,82.4,44.6,26,29.64,10.0,SW,24.2,28.8,N/A,,Scattered Clouds,220,2012-10-13 21:15:00
4:55 PM,80.6,37.4,21,29.63,10.0,SW,24.2,33.4,N/A,,Scattered Clouds,230,2012-10-13 21:55:00
5:15 PM,80.6,33.8,18,29.64,10.0,WSW,27.6,34.5,N/A,,Scattered Clouds,240,2012-10-13 22:15:00
5:35 PM,78.8,50.0,36,29.64,10.0,West,19.6,33.4,N/A,,Scattered Clouds,280,2012-10-13 22:35:00
5:55 PM,77.0,50.0,39,29.64,10.0,West,20.7,26.5,N/A,,Scattered Clouds,280,2012-10-13 22:55:00
6:15 PM,73.4,42.8,33,29.65,10.0,WNW,11.5,-,N/A,,Clear,290,2012-10-13 23:15:00
6:35 PM,71.6,44.6,38,29.65,10.0,West,9.2,-,N/A,,Clear,280,2012-10-13 23:35:00
7:55 PM,62.6,46.4,55,29.66,10.0,West,9.2,-,N/A,,Scattered Clouds,280,2012-10-14 00:55:00
8:15 PM,62.6,44.6,52,29.68,10.0,West,10.4,-,N/A,,Scattered Clouds,270,2012-10-14 01:15:00
8:35 PM,62.6,41.0,45,29.70,10.0,West,24.2,32.2,N/A,,Scattered Clouds,270,2012-10-14 01:35:00
9:15 PM,60.8,44.6,55,29.72,10.0,WNW,20.7,28.8,N/A,,Clear,290,2012-10-14 02:15:00
9:35 PM,59.0,44.6,59,29.71,10.0,WNW,18.4,26.5,N/A,,Clear,290,2012-10-14 02:35:00
9:55 PM,59.0,44.6,59,29.71,10.0,WNW,16.1,-,N/A,,Clear,290,2012-10-14 02:55:00
10:15 PM,59.0,44.6,59,29.71,10.0,WNW,15.0,-,N/A,,Clear,290,2012-10-14 03:15:00
10:35 PM,55.4,44.6,67,29.71,10.0,WNW,11.5,-,N/A,,Clear,290,2012-10-14 03:35:00
10:55 PM,55.4,46.4,72,29.71,10.0,WNW,13.8,-,N/A,,Clear,290,2012-10-14 03:55:00
11:15 PM,53.6,46.4,77,29.71,10.0,West,13.8,-,N/A,,Clear,280,2012-10-14 04:15:00
11:35 PM,53.6,44.6,72,29.70,10.0,West,13.8,-,N/A,,Clear,280,2012-10-14 04:35:00